Location: Windsor
(43.2292°N, 89.3015°W)
Time: 05:42:27
(UTC+00:00)

First-Move - Pass Details

Date: 08 July 2022
Orbit: 572 x 658 km, 97.6° (Epoch: 11 August)

Event Time Altitude Azimuth Distance (km) Brightness Sun altitude
Rises 09:27:30 0° 20° (NNE) 2,979 ? -9.2°
Reaches altitude 10° 09:29:51 10° 29° (NNE) 2,071 ? -8.9°
Maximum altitude 09:34:04 38° 97° (E) 1,013 ? -8.3°
Drops below altitude 10° 09:38:17 10° 166° (SSE) 2,067 ? -7.7°
Sets 09:40:38 0° 174° (S) 2,972 ? -7.4°
